Home   Weather   Warminster Township   Past weeks

Flag for USA Past Weather in Warminster Township, Pennsylvania, USA — Yesterday and Last 2 Weeks

Now
41 °F

More clouds than sun.


Feels Like: 35 °F
Forecast: 36 / 39 °F
Wind: 10 mph from North

Location: Doylestown Airport

Current Time: Jan 24, 2017 at 12:39:34 pm

Latest Report: Jan 24, 2017 at 11:54 am


Visibility: 10 mi

Pressure: 29.40 "Hg

Humidity: 82%

Dew Point: 36 °F

Location of Warminster TownshipLocation

Past Weather in Warminster Township — Graph

°F

Warminster Township Temperature Yesterday

Maximum temperature yesterday: 46 °F (at 12:54 am)
Minimum temperature yesterday: 37 °F (at 2:29 pm)
Average temperature yesterday: 39 °F

High & Low Weather Summary for the Past Weeks

 TemperatureHumidityPressure
High65 °F (Jan 12, 3:54 pm)100% (Jan 17, 11:27 pm)30.73 "Hg (Jan 17, 11:27 pm)
Low10 °F (Jan 10, 3:54 am)37% (Jan 13, 2:54 pm)29.38 "Hg (Jan 24, 5:09 am)
Average40 °F81%30.07 "Hg
* Reported Jan 9 11:54 am — Jan 24 11:34 am, Warminster Township, Weather by CustomWeather, © 2017

Note: Actual official high and low records may vary slightly from our data, if they occured in-between our weather recording intervals... More about our weather records

Advertising

Warminster Township Weather History for the Previous 24 Hours

Scroll right to see more
 ConditionsComfort  
Time TempWeatherWind HumidityBarometerVisibility
11:34 am
Tue, Jan 24
40 °FCloudy.14 mph86%29.40 "Hg10 mi
10:54 am39 °FLight rain. Cloudy.12 mph93%29.43 "Hg10 mi
10:28 am39 °FLight rain. Cloudy.13 mph89%29.42 "Hg9 mi
9:54 am38 °FLight rain. Mostly cloudy.14 mph93%29.42 "Hg10 mi
9:32 am37 °FLight rain. Mostly cloudy.12 mph93%29.41 "Hg9 mi
9:07 am37 °FMostly cloudy.9 mph93%29.41 "Hg10 mi
8:44 am37 °FCloudy.9 mph93%29.40 "Hg10 mi
8:18 am36 °FLight rain. Cloudy.14 mph97%29.39 "Hg10 mi
7:54 am36 °FLight rain. Cloudy.10 mph92%29.39 "Hg8 mi
7:07 am36 °FLight rain. Mostly cloudy.12 mph92%29.39 "Hg10 mi
6:42 am36 °FLight rain. Mostly cloudy.12 mph92%29.39 "Hg7 mi
5:54 am36 °FLight rain. Mostly cloudy.10 mph92%29.40 "Hg10 mi
5:09 am35 °FLight rain. Fog.10 mph96%29.38 "Hg6 mi
4:54 am35 °FLight rain. Mostly cloudy.9 mph96%29.40 "Hg7 mi
3:54 am36 °FLight rain. Mostly cloudy.9 mph97%29.41 "Hg8 mi
3:02 am38 °FLight rain. Fog.8 mph97%29.40 "Hg5 mi
2:54 am38 °FLight rain. Fog.6 mph97%29.41 "Hg6 mi
2:25 am38 °FRain. Fog.10 mph97%29.40 "Hg5 mi
2:17 am38 °FLight rain. Fog.13 mph97%29.40 "Hg5 mi
1:54 am38 °FLight rain. Fog.9 mph97%29.41 "Hg6 mi
12:54 am38 °FLight rain. Overcast.16 mph93%29.41 "Hg10 mi
12:24 am38 °FLight rain. Mostly cloudy.15 mph90%29.39 "Hg10 mi
11:54 pm
Mon, Jan 23
37 °FRain. Mostly cloudy.17 mph93%29.43 "Hg10 mi
10:54 pm37 °FLight rain. Overcast.9 mph93%29.47 "Hg10 mi
9:54 pm37 °FOvercast.10 mph89%29.51 "Hg10 mi
9:03 pm37 °FOvercast.13 mph93%29.52 "Hg10 mi
8:54 pm37 °FChilly.14 mph89%29.54 "Hg10 mi
6:15 pm37 °FChilly.N/A89%29.55 "HgN/A
5:54 pm37 °FRain. Fog.12 mph93%29.57 "Hg6 mi
5:44 pm37 °FRain. Fog.12 mph89%29.56 "Hg6 mi
4:54 pm37 °FRain. Fog.9 mph89%29.59 "Hg6 mi
4:41 pm37 °FRain. Fog.13 mph89%29.58 "Hg6 mi
4:03 pm37 °FRain. Fog.9 mph89%29.56 "Hg6 mi
3:54 pm37 °FLight rain. Mostly cloudy.13 mph89%29.57 "Hg7 mi
2:54 pm37 °FLight rain. Mostly cloudy.12 mph89%29.59 "Hg9 mi
2:29 pm37 °FLight rain. Mostly cloudy.13 mph89%29.58 "Hg10 mi
1:54 pm38 °FLight rain. Mostly cloudy.14 mph83%29.61 "Hg9 mi
12:54 pm39 °FOvercast.N/A79%29.62 "Hg10 mi
12:03 pm38 °FLight rain. Overcast.10 mph86%29.65 "Hg10 mi
Weather by CustomWeather, © 2017

See weather overviewHow to use our weather pages